Meteo Giornale » Osservazioni meteo Stati Uniti (USA) » Angoon
ore: 04:39 - Osservazioni Meteo Angoon
Lat. 57° 30' N Lon. 134° 35' W Alt. 0 metri s.l.m.
11 °C
Coperto
Temp. 24 Ore
10 °C
13 °C
Est/Nord-Est
11.1 Km/h
Dew point 11 °C
Umidità 100 %
Visibilità 10 Km
Il sole sorge alle ore 06:00
Il sole tramonta alle ore 19:55
| Data e Ora | Cielo e Fenomeni | T °C | DP °C | Um. % | Pres. hPa | Vis. km | Vento km/h | |
|---|---|---|---|---|---|---|---|---|
| Oggi h: 04:39 | Coperto | 11 | 11 | 100 | 999 | 10 | E/NE 11.1 | |
| Oggi h: 04:06 | Pioggia | 11 | 11 | 100 | 999 | 10 | E/NE 9.3 | |
| Oggi h: 03:56 | Coperto | 11 | 11 | 100 | 999 | 10 | E/NE 9.3 | |
| Oggi h: 02:56 | Pioggia | 11 | 11 | 100 | 999 | 10 | NE 11.1 | |
| Oggi h: 01:56 | Pioggia | 11 | 11 | 100 | 999 | 10 | NE 9.3 | |
| Oggi h: 00:56 | Pioggia | 11 | 11 | 100 | 999 | 10 | E/NE 7.4 | |
| Ieri h: 23:56 | Pioggia | 11 | 11 | 100 | 1000 | 11 | N 0 | |
| Ieri h: 23:10 | Foschia | 10 | 10 | 100 | 1000 | 10 | N 0 | |
| Ieri h: 22:56 | Coperto | 11 | 11 | 100 | 1000 | 11 | N 0 | |
| Ieri h: 21:56 | Coperto | 11 | 11 | 100 | 1000 | 13 | N 0 | |
| Ieri h: 21:38 | Coperto | 11 | 11 | 100 | 1000 | 14 | N 0 | |
| Ieri h: 21:31 | Coperto | 11 | 11 | 100 | 1000 | 13 | N 0 | |
| Ieri h: 21:05 | Coperto | 11 | 11 | 100 | 1001 | 14 | N 5.5 | |
| Ieri h: 20:56 | Coperto | 11 | 11 | 100 | 1001 | 13 | N 5.5 | |
| Ieri h: 20:52 | Coperto | 11 | 11 | 100 | 1001 | 11 | N 0 | |
| Ieri h: 19:56 | Pioggia | 11 | 11 | 100 | 1001 | 14 | N 0 | |
| Ieri h: 19:24 | Pioggia | 11 | 11 | 100 | 1001 | 11 | N 5.5 | |
| Ieri h: 18:56 | Pioggia | 11 | 11 | 100 | 1001 | 14 | N 0 | |
| Ieri h: 18:45 | Pioggia Foschia | 11 | 11 | 100 | 1001 | 5 | N 5.5 | |
| Ieri h: 18:41 | Pioggia Foschia | 11 | 11 | 100 | 1001 | 2 | S/SE 7.4 | |
| Ieri h: 17:56 | Pioggia Foschia | 12 | 12 | 100 | 1001 | 6 | N 7.4 | |
| Ieri h: 16:56 | Coperto | 12 | 12 | 100 | 1002 | 10 | N 0 | |
| Ieri h: 15:56 | Coperto | 13 | 12 | 93 | 1002 | 10 | N 0 | |
| Ieri h: 14:56 | Pioggia | 12 | 12 | 100 | 1002 | 10 | N 5.5 | |
| Ieri h: 13:56 | Pioggia | 13 | 13 | 100 | 1003 | 10 | N 0 | |
| Ieri h: 12:56 | Pioggia | 13 | 13 | 100 | 1003 | 13 | N 0 | |
| Ieri h: 11:56 | Molto Nuvoloso | 13 | 13 | 100 | 1003 | 10 | N 0 | |
| Ieri h: 10:56 | Pioggia | 12 | 12 | 100 | 1004 | 10 | N 0 | |
| Ieri h: 09:56 | Coperto | 12 | 12 | 100 | 1004 | 10 | N 5.5 | |
| Ieri h: 08:56 | Coperto | 12 | 12 | 100 | 1005 | 10 | N 0 | |
| Ieri h: 07:56 | Coperto | 11 | 11 | 100 | 1005 | 10 | N 0 | |
| Ieri h: 07:29 | Coperto | 11 | 11 | 100 | 1005 | 13 | N 0 | |
| Ieri h: 07:15 | Foschia | 11 | 11 | 100 | 1005 | 10 | N 0 | |
| Ieri h: 07:04 | Foschia | 11 | 11 | 100 | 1006 | 10 | N 0 | |
| Ieri h: 06:56 | Pioggia Foschia | 11 | 11 | 100 | 1006 | 10 | N 0 | |
| Ieri h: 06:24 | Foschia | 11 | 11 | 100 | 1006 | 10 | N 0 | |
| Ieri h: 06:17 | Foschia | 11 | 11 | 100 | 1006 | 10 | N 0 | |
| Ieri h: 05:56 | Coperto | 11 | 11 | 100 | 1006 | 11 | N 0 | |
| Ieri h: 05:17 | Coperto | 11 | 11 | 100 | 1006 | 14 | N 0 | |
| Ieri h: 04:56 | Coperto | 11 | 11 | 100 | 1007 | 14 | N 0 | |
| Ieri h: 04:53 | Coperto | 11 | 11 | 100 | 1007 | 10 | N 0 | |



